Weather History for KHRI - February, 2014

Change the Weather History Date:

Friday, February 21, 2014

  Actual Average Record
Temperature  
Mean Temperature 46 °F -  
Max Temperature 54 °F 51 °F 64 °F (1968)
Min Temperature 39 °F 30 °F 9 °F (1957)
Degree Days  
Heating Degree Days 18    
Moisture  
Dew Point 31 °F    
Average Humidity 59    
Maximum Humidity 77    
Minimum Humidity 40    
Precipitation  
Precipitation 0.00 in - - ()
Sea Level Pressure  
Sea Level Pressure 30.13 in    
Wind  
Wind Speed 16 mph (West)    
Max Wind Speed 23 mph    
Max Gust Speed 31 mph    
Visibility 10 miles    
Events      
Averages and records for this station are not official NWS values.
T = Trace of Precipitation, MM = Missing Value Source: NWS Daily Summary

Daily Weather History Graph

Daily Weather History Graph

Search for Another Location

Airport or City:

Trip Planner

Search our weather history database for the weather conditions in past years. The results will help you decide how hot, cold, wet, or windy it might be!

Date:

Astronomy

Feb. 21, 2014 Rise Set
Actual Time 6:49 AM PST 5:32 PM PST
Civil Twilight 6:19 AM PST 6:02 PM PST
Nautical Twilight 5:44 AM PST 6:37 PM PST
Astronomical Twilight 5:10 AM PST 7:11 PM PST
Moon No Moon Rise 9:56 AM PST (2/21)
Length of Visible Light 11h 43m
Length of Day
10h 43m
Waning Gibbous, 59% of the Moon is Illuminated
Feb 21
Waning Gibbous
Feb 22
Last Quarter
Mar 1
New
Mar 8
First Quarter
Mar 16
Full

Hourly Weather History & Observations

Time (PST) Temp. Windchill Dew Point Humidity Pressure Visibility Wind Dir Wind Speed Gust Speed Precip Events Conditions
12:53 AM 43.0 °F 34.2 °F 35.1 °F 74% 30.12 in 10.0 mi WSW 20.7 mph 27.6 mph N/A   Clear
1:53 AM 43.0 °F 34.2 °F 34.0 °F 71% 30.13 in 10.0 mi WSW 20.7 mph 29.9 mph N/A   Clear
2:53 AM 42.1 °F 33.1 °F 34.0 °F 73% 30.12 in 10.0 mi WSW 20.7 mph - N/A   Clear
3:53 AM 41.0 °F 32.2 °F 33.1 °F 73% 30.12 in 10.0 mi SW 18.4 mph 27.6 mph N/A   Clear
4:53 AM 42.1 °F 33.9 °F 34.0 °F 73% 30.14 in 10.0 mi SW 17.3 mph - N/A   Clear
5:53 AM 39.9 °F 31.8 °F 33.1 °F 77% 30.14 in 10.0 mi SW 15.0 mph - N/A   Clear
6:53 AM 39.9 °F 33.4 °F 32.0 °F 73% 30.13 in 10.0 mi WSW 10.4 mph - N/A   Clear
7:53 AM 39.9 °F 37.8 °F 33.1 °F 77% 30.16 in 10.0 mi Variable 3.5 mph - N/A   Clear
8:53 AM 45.0 °F 37.9 °F 33.1 °F 63% 30.17 in 10.0 mi WSW 16.1 mph 23.0 mph N/A   Clear
9:53 AM 46.9 °F - 32.0 °F 56% 30.17 in 10.0 mi West 20.7 mph 31.1 mph N/A   Clear
10:53 AM 50.0 °F - 32.0 °F 50% 30.17 in 10.0 mi West 23.0 mph - N/A   Clear
11:53 AM 53.1 °F - 30.9 °F 43% 30.15 in 10.0 mi West 17.3 mph - N/A   Clear
12:53 PM 54.0 °F - 30.0 °F 40% 30.13 in 10.0 mi West 15.0 mph - N/A   Partly Cloudy
1:53 PM 52.0 °F - 28.9 °F 41% 30.11 in 10.0 mi West 17.3 mph - N/A   Clear
2:53 PM 51.1 °F - 28.9 °F 43% 30.10 in 10.0 mi WSW 20.7 mph 26.5 mph N/A   Clear
3:53 PM 50.0 °F - 30.0 °F 46% 30.09 in 10.0 mi WSW 15.0 mph - N/A   Clear
4:53 PM 48.0 °F - 28.9 °F 48% 30.09 in 10.0 mi West 12.7 mph - N/A   Clear
5:53 PM 46.9 °F - 28.9 °F 50% 30.10 in 10.0 mi West 12.7 mph - N/A   Clear
6:53 PM 45.0 °F 39.3 °F 30.0 °F 56% 30.11 in 10.0 mi WNW 11.5 mph - N/A   Clear
7:53 PM 43.0 °F 39.5 °F 28.0 °F 56% 30.12 in 10.0 mi NNW 5.8 mph - N/A   Clear
8:53 PM 42.1 °F 36.1 °F 27.0 °F 55% 30.14 in 10.0 mi North 10.4 mph - N/A   Partly Cloudy
9:53 PM 39.9 °F 35.8 °F 26.1 °F 58% 30.15 in 10.0 mi North 5.8 mph - N/A   Overcast
10:53 PM 39.9 °F 35.8 °F 26.1 °F 58% 30.16 in 10.0 mi NNW 5.8 mph - N/A   Overcast
11:53 PM 39.0 °F 35.7 °F 26.1 °F 60% 30.17 in 10.0 mi WNW 4.6 mph - N/A   Overcast